Location: Newark
(0.5481°S, 166.9394°E)
Time: 07:09:32
(UTC+00:00)

N. Korean satellite - Visible Passes

Search period start: 22 October 2019 00:00
Search period end: 01 November 2019 00:00
Orbit: 455 x 508 km, 97.2° (Epoch: 21 October)

Date Brightness Start Highest point End Pass type
(mag) Time Alt. Az. Time Alt. Az. Time Alt. Az.
23 Oct 9.3 17:53:32 10° NE 17:56:39 26° E 17:59:47 10° SSE visible
24 Oct 10.3 07:15:33 10° SW 07:16:58 12° WSW 07:18:23 10° WNW visible
24 Oct 10.6 17:30:43 10° E 17:31:26 10° ESE 17:32:09 10° ESE visible
26 Oct 7.7 18:10:27 10° NNE 18:14:03 51° E 18:17:41 10° S visible
27 Oct 9.8 17:46:04 10° NE 17:48:49 20° E 17:51:35 10° SSE visible
28 Oct 9.9 07:06:53 10° SW 07:09:05 16° W 07:11:17 10° WNW visible
30 Oct 8.5 18:02:44 10° NNE 18:06:11 37° E 18:09:39 10° S visible
31 Oct 10.1 17:38:45 10° ENE 17:40:56 15° E 17:43:08 10° SE visible
